Budapest Ferihegy, Hungary

4:25 AM CEST on August 19, 2017 (GMT +0200)
Ferihegy

Weather History for LHBP - October, 2012

Change the Weather History Date:

Monday, October 29, 2012

  Actual Average Record
Temperature  
Mean Temperature 36 °F -  
Max Temperature 39 °F 46 °F 69 °F (2004)
Min Temperature 32 °F 33 °F 14 °F (1997)
Degree Days  
Heating Degree Days 30    
Moisture  
Dew Point 33 °F    
Average Humidity 88    
Maximum Humidity 100    
Minimum Humidity 81    
Precipitation  
Precipitation 0.00 in - - ()
Sea Level Pressure  
Sea Level Pressure 29.82 in    
Wind  
Wind Speed 5 mph ()    
Max Wind Speed 15 mph    
Max Gust Speed -    
Visibility 4.8 miles    
Events Rain , Snow    
Averages and records for this station are not official NWS values.
T = Trace of Precipitation, MM = Missing Value Source: Averaged Metar Reports

Daily Weather History Graph

Daily Weather History Graph

Search for Another Location

Airport or City:

Trip Planner

Search our weather history database for the weather conditions in past years. The results will help you decide how hot, cold, wet, or windy it might be!

Date:

Astronomy

Oct. 29, 2012 Rise Set
Actual Time 6:22 AM CET 4:30 PM CET
Civil Twilight 5:50 AM CET 5:02 PM CET
Nautical Twilight 5:14 AM CET 5:38 PM CET
Astronomical Twilight 4:38 AM CET 6:13 PM CET
Moon 4:09 PM CET (10/29) 5:56 AM CET (10/29)
Length of Visible Light 11h 11m
Length of Day
10h 07m
Full, 100% of the Moon is Illuminated
Oct 29
Full
Oct 29
Full
Nov 7
Last Quarter
Nov 13
New
Nov 20
First Quarter

Hourly Weather History & Observations

Time (CET) Temp. Windchill Dew Point Humidity Pressure Visibility Wind Dir Wind Speed Gust Speed Precip Events Conditions
12:00 AM 37.4 °F - 33.8 °F 87% 29.83 in 6.2 mi Variable 2.3 mph - N/A   Overcast
12:30 AM 37.4 °F 34.9 °F 33.8 °F 87% 29.83 in 6.2 mi Variable 3.5 mph - N/A   Overcast
1:00 AM 37.4 °F - 33.8 °F 87% 29.80 in 6.2 mi Variable 1.2 mph - N/A   Overcast
1:30 AM 37.4 °F - 33.8 °F 87% 29.83 in 6.2 mi Variable 1.2 mph - N/A   Overcast
2:00 AM 37.4 °F - 33.8 °F 87% 29.83 in 5.0 mi Calm Calm - N/A   Overcast
2:30 AM 37.4 °F 34.9 °F 35.6 °F 93% 29.83 in 3.7 mi Variable 3.5 mph - N/A   Overcast
3:00 AM 37.4 °F - 33.8 °F 87% 29.80 in 3.7 mi Variable 1.2 mph - N/A Rain Light Rain
3:30 AM 37.4 °F - 33.8 °F 87% 29.80 in 3.7 mi Variable 2.3 mph - N/A Rain Light Rain
4:00 AM 37.4 °F 32.8 °F 33.8 °F 87% 29.80 in 3.7 mi NNW 5.8 mph - N/A Rain , Snow Light Rain
4:30 AM 35.6 °F 30.7 °F 33.8 °F 93% 29.77 in 5.0 mi North 5.8 mph - N/A Rain Light Rain
5:00 AM 35.6 °F 31.7 °F 33.8 °F 93% 29.80 in 5.0 mi NW 4.6 mph - N/A Rain Light Rain
5:30 AM 35.6 °F 28.6 °F 33.8 °F 93% 29.80 in 5.0 mi WNW 9.2 mph - N/A Rain Light Rain
6:00 AM 35.6 °F 29.9 °F 33.8 °F 93% 29.83 in 5.0 mi West 6.9 mph - N/A Rain Light Rain
6:30 AM 35.6 °F 29.2 °F 33.8 °F 93% 29.80 in 2.5 mi NNW 8.1 mph - N/A Rain Light Rain
7:00 AM 33.8 °F 28.6 °F 32.0 °F 93% 29.80 in 1.2 mi North 5.8 mph - N/A Snow Snow
7:30 AM 32.0 °F 27.5 °F 30.2 °F 93% 29.83 in 0.7 mi NNW 4.6 mph - N/A Snow Snow
8:00 AM 32.0 °F 26.4 °F 30.2 °F 93% 29.80 in 2.2 mi NW 5.8 mph - N/A Snow Light Snow
8:30 AM 32.0 °F 26.4 °F 32.0 °F 100% 29.80 in 2.8 mi WNW 5.8 mph - N/A Rain , Snow Light Rain
9:00 AM 33.8 °F 27.7 °F 32.0 °F 93% 29.83 in 2.2 mi West 6.9 mph - N/A Rain , Snow Light Rain
9:30 AM 33.8 °F 29.6 °F 32.0 °F 93% 29.83 in 2.8 mi WNW 4.6 mph - N/A Rain , Snow Light Rain
10:00 AM 35.6 °F 31.7 °F 33.8 °F 93% 29.83 in 3.7 mi NNW 4.6 mph - N/A   Mostly Cloudy
10:30 AM 37.4 °F 32.8 °F 35.6 °F 93% 29.83 in 5.0 mi NW 5.8 mph - N/A   Mostly Cloudy
11:00 AM 37.4 °F 32.8 °F 33.8 °F 87% 29.83 in 5.0 mi North 5.8 mph - N/A   Mostly Cloudy
11:30 AM 39.2 °F 35.0 °F 35.6 °F 87% 29.83 in 6.2 mi NW 5.8 mph - N/A   Mostly Cloudy
12:00 PM 39.2 °F 35.0 °F 33.8 °F 81% 29.80 in 6.2 mi NNW 5.8 mph - N/A   Mostly Cloudy
12:30 PM 39.2 °F 35.0 °F 35.6 °F 87% 29.80 in 6.2 mi NNW 5.8 mph - N/A   Mostly Cloudy
1:00 PM 39.2 °F 37.0 °F 33.8 °F 81% 29.80 in 6.2 mi Variable 3.5 mph - N/A   Mostly Cloudy
1:30 PM 39.2 °F 35.0 °F 33.8 °F 81% 29.80 in 6.2 mi WNW 5.8 mph - N/A   Mostly Cloudy
2:00 PM 39.2 °F 35.0 °F 33.8 °F 81% 29.80 in 6.2 mi West 5.8 mph - N/A   Overcast
2:30 PM 39.2 °F 34.2 °F 35.6 °F 87% 29.80 in 6.2 mi West 6.9 mph - N/A   Mostly Cloudy
3:00 PM 39.2 °F 33.6 °F 35.6 °F 87% 29.80 in 6.2 mi WNW 8.1 mph - N/A   Mostly Cloudy
3:30 PM 37.4 °F 30.8 °F 33.8 °F 87% 29.80 in 6.2 mi NW 9.2 mph - N/A   Mostly Cloudy
4:00 PM 37.4 °F 30.3 °F 33.8 °F 87% 29.80 in 5.0 mi WNW 10.4 mph - N/A   Mostly Cloudy
4:30 PM 37.4 °F 30.3 °F 33.8 °F 87% 29.80 in 5.0 mi NW 10.4 mph - N/A   Mostly Cloudy
5:00 PM 37.4 °F 29.8 °F 33.8 °F 87% 29.83 in 5.0 mi WNW 11.5 mph - N/A   Mostly Cloudy
5:30 PM 37.4 °F 29.8 °F 33.8 °F 87% 29.83 in 5.0 mi WNW 11.5 mph - N/A   Mostly Cloudy
6:00 PM 37.4 °F 30.3 °F 33.8 °F 87% 29.83 in 5.0 mi WNW 10.4 mph - N/A   Overcast
6:30 PM 37.4 °F 30.3 °F 33.8 °F 87% 29.83 in 5.0 mi WNW 10.4 mph - N/A   Overcast
7:00 PM 37.4 °F 30.3 °F 33.8 °F 87% 29.83 in 5.0 mi WNW 10.4 mph - N/A   Overcast
7:30 PM 37.4 °F 29.8 °F 33.8 °F 87% 29.83 in 5.0 mi WNW 11.5 mph - N/A   Overcast
8:00 PM 37.4 °F 30.3 °F 33.8 °F 87% 29.83 in 5.0 mi WNW 10.4 mph - N/A   Mostly Cloudy
8:30 PM 37.4 °F 29.3 °F 32.0 °F 81% 29.86 in 5.0 mi WNW 12.7 mph - N/A   Overcast
9:00 PM 37.4 °F 28.9 °F 32.0 °F 81% 29.86 in 5.0 mi WNW 13.8 mph - N/A   Mostly Cloudy
9:30 PM 35.6 °F 26.2 °F 32.0 °F 87% 29.86 in 5.0 mi WNW 15.0 mph - N/A   Mostly Cloudy
10:00 PM 35.6 °F 26.6 °F 32.0 °F 87% 29.83 in 5.0 mi WNW 13.8 mph - N/A   Mostly Cloudy
10:30 PM 35.6 °F 26.6 °F 32.0 °F 87% 29.83 in 5.0 mi WNW 13.8 mph - N/A   Mostly Cloudy
11:00 PM 35.6 °F 27.1 °F 30.2 °F 81% 29.83 in 5.0 mi WNW 12.7 mph - N/A   Mostly Cloudy
11:30 PM 35.6 °F 28.0 °F 30.2 °F 81% 29.83 in 5.0 mi WNW 10.4 mph - N/A   Mostly Cloudy